BCS241P EDDK-LIMC

Flight info

Callsign BCS241P
Flight time N/A
Altitude 33000
Route KUMIK7K KUMIK Y854 BOMBI DCT GIGET DCT ABUKA DCT KRH DCT NATOR DCT DITON DCT BASGO Z424 RIXUV
Aircraft B738/M-SDE2E3FGHIRWXY/LB1

Departure

Time N/A
Airport Cologne Bonn Airport (EDDK)

Arrival

Time 2026-05-07 18:20
Airport Milan Malpensa International Airport (LIMC)
Time Latitude Longitude Altitude Speed Heading
2026-05-07 18:04 45.72654 8.79537 14890 ft 349 kts 153°
2026-05-07 18:05 45.70488 8.81092 14464 ft 347 kts 153°
2026-05-07 18:05 45.68349 8.82657 14070 ft 344 kts 153°
2026-05-07 18:05 45.66226 8.84259 14042 ft 347 kts 152°
2026-05-07 18:05 45.64118 8.85871 13916 ft 341 kts 152°
2026-05-07 18:06 45.62029 8.87450 13581 ft 338 kts 155°
2026-05-07 18:06 45.59792 8.88408 13068 ft 338 kts 170°
2026-05-07 18:06 45.57475 8.88944 12612 ft 336 kts 171°
2026-05-07 18:06 45.55173 8.89508 12189 ft 335 kts 170°
2026-05-07 18:07 45.52890 8.90107 11781 ft 332 kts 169°
2026-05-07 18:07 45.50628 8.90717 11373 ft 330 kts 169°
2026-05-07 18:07 45.48375 8.91330 10958 ft 328 kts 169°
2026-05-07 18:07 45.46139 8.91940 10547 ft 326 kts 169°
2026-05-07 18:08 45.43911 8.92546 10138 ft 324 kts 169°
2026-05-07 18:08 45.41704 8.93146 9747 ft 322 kts 169°
2026-05-07 18:08 45.39507 8.93742 9338 ft 320 kts 169°
2026-05-07 18:08 45.37323 8.94334 8938 ft 318 kts 169°
2026-05-07 18:09 45.35178 8.94915 8539 ft 317 kts 169°
2026-05-07 18:09 45.33023 8.95499 8149 ft 315 kts 169°
2026-05-07 18:09 45.30889 8.96076 7945 ft 306 kts 169°
2026-05-07 18:09 45.28835 8.96633 7861 ft 295 kts 169°
2026-05-07 18:10 45.26857 8.97171 7780 ft 284 kts 169°
2026-05-07 18:10 45.24953 8.97688 7711 ft 274 kts 169°
2026-05-07 18:10 45.23108 8.98188 7542 ft 267 kts 169°
2026-05-07 18:10 45.21281 8.98654 7256 ft 266 kts 175°
2026-05-07 18:11 45.19468 8.98325 6934 ft 265 kts 203°
2026-05-07 18:11 45.18003 8.96814 6643 ft 262 kts 232°
2026-05-07 18:11 45.17237 8.94499 6347 ft 261 kts 261°
2026-05-07 18:11 45.17358 8.91967 6049 ft 260 kts 289°
2026-05-07 18:12 45.18146 8.89673 5781 ft 258 kts 299°
2026-05-07 18:12 45.19174 8.87599 5463 ft 259 kts 317°
2026-05-07 18:12 45.20717 8.86305 5199 ft 258 kts 337°
2026-05-07 18:12 45.22382 8.85381 4924 ft 257 kts 339°
2026-05-07 18:13 45.24056 8.84508 4636 ft 256 kts 341°
2026-05-07 18:13 45.25760 8.83792 4366 ft 255 kts 345°
2026-05-07 18:13 45.27489 8.83223 4103 ft 254 kts 347°
2026-05-07 18:13 45.29209 8.82725 3950 ft 248 kts 348°
2026-05-07 18:14 45.30862 8.82265 3807 ft 242 kts 348°
2026-05-07 18:14 45.32514 8.81809 3555 ft 242 kts 348°
2026-05-07 18:14 45.34160 8.81353 3298 ft 241 kts 348°
2026-05-07 18:14 45.35805 8.80898 3102 ft 241 kts 348°
2026-05-07 18:15 45.37453 8.80440 3056 ft 239 kts 348°
2026-05-07 18:15 45.39055 8.79996 3031 ft 231 kts 348°
2026-05-07 18:15 45.40631 8.79559 3033 ft 230 kts 348°
2026-05-07 18:15 45.42200 8.79124 3034 ft 229 kts 348°
2026-05-07 18:16 45.43744 8.78695 3025 ft 222 kts 348°
2026-05-07 18:16 45.45228 8.78284 3038 ft 211 kts 348°
2026-05-07 18:16 45.46651 8.77889 3029 ft 207 kts 348°
2026-05-07 18:16 45.48048 8.77502 3036 ft 200 kts 348°
2026-05-07 18:17 45.49381 8.77132 3027 ft 191 kts 348°
2026-05-07 18:17 45.50674 8.76773 2864 ft 193 kts 348°
2026-05-07 18:17 45.51982 8.76410 2617 ft 190 kts 348°
2026-05-07 18:17 45.53276 8.76051 2377 ft 182 kts 348°
2026-05-07 18:18 45.54467 8.75721 2159 ft 167 kts 348°
2026-05-07 18:18 45.55545 8.75422 1923 ft 154 kts 348°
2026-05-07 18:18 45.56585 8.75134 1721 ft 150 kts 348°
2026-05-07 18:18 45.57615 8.74848 1535 ft 151 kts 348°
2026-05-07 18:19 45.58652 8.74561 1331 ft 152 kts 348°
2026-05-07 18:19 45.59689 8.74274 1112 ft 151 kts 348°
2026-05-07 18:19 45.60718 8.73990 919 ft 150 kts 348°
2026-05-07 18:19 45.61736 8.73705 750 ft 148 kts 348°
2026-05-07 18:20 45.62655 8.73451 738 ft 115 kts 349°
2026-05-07 18:20 45.63291 8.73274 735 ft 71 kts 349°
2026-05-07 18:20 45.63640 8.73137 738 ft 45 kts 329°
2026-05-07 18:20 45.63825 8.72891 735 ft 21 kts 303°
2026-05-07 18:21 45.63905 8.72719 735 ft 19 kts 304°
2026-05-07 18:21 45.63918 8.72618 733 ft 11 kts 237°
2026-05-07 18:21 45.63849 8.72595 735 ft 11 kts 171°
2026-05-07 18:21 45.63777 8.72614 735 ft 10 kts 169°
2026-05-07 18:22 45.63699 8.72636 734 ft 13 kts 169°
2026-05-07 18:22 45.61630 8.71977 736 ft 0 kts 259°